User: anonymous   Login
Location: D.A.R.C. Observatory
(36.7133°N, 120.8553°W)
Time: 06:48:44
(UTC-07:00)
Language:

USA 215 - Orbit

View from above orbital plane
View from above orbital plane
View from above satellite
View from above satellite

Ground track
Ground track

The orbit data is extracted from the following two-line orbital elements,

1 37162U 10046A   16267.87104232 0.00000000  00000-0  00000-0 0    02
2 37162 123.0033  68.9801 0004882 148.3328 211.6672 13.41420063    05
Epoch (UTC): 23 September 2016 20:54:18
Eccentricity: 0.0004882
inclination: 123.0033°
perigee height: 1100 km
apogee height: 1107 km
right ascension of ascending node: 68.9801°
argument of perigee: 148.3328°
revolutions per day: 13.41420063
mean anomaly at epoch: 211.6672°
orbit number at epoch: 0

The dashed part of the orbit path shows where the satellite is in the earth's shadow,  

DLR